SCP
3 3 3 2 2 2 2 2 2 2 1 1 1 1 1 1 1 1 1 1 0 0 1 1 1 1 1 1 1 1 1 1 1 1 1 1 1 1 1 1 0 0 1
3 3 3 3 3 2 2 2 2 2 2 1 1 1 1 1 1 1 1 1 1 1 1 1 1 1 1 1 1 1 1 1 1 1 1 1 1 1 1 1 1 1 1
3 3 3 3 3 2 2 2 2 2 2 2 1 2 2 1 1 1 1 1 1 1 1 1 1 1 1 1 1 1 2 2 2 2 2 2 1 1 1 1 1 1 1
3 3 3 3 3 2 2 2 2 2 2 2 1 1 2 1 1 1 1 1 1 1 1 1 1 1 1 1 1 2 2 2 2 2 2 2 1 1 1 1 1 1 1
4 4 3 3 3 3 2 2 2 2 2 1 1 1 1 1 1 1 1 1 1 1 1 1 1 1 1 1 1 1 1 1 2 2 2 2 1 1 1 1 1 1 1
5 4 4 4 4 4 3 2 2 2 2 2 1 1 1 1 1 1 1 1 2 2 1 1 1 1 1 1 1 1 1 1 1 2 2 2 1 1 1 1 1 1 1
4 4 4 5 5 5 4 4 3 2 2 2 2 2 2 1 1 1 1 1 2 2 1 1 1 1 1 1 0 0 0 1 1 1 2 2 2 1 1 1 1 1 1
3 4 4 5 5 5 5 5 4 3 3 2 2 2 2 1 1 1 1 1 1 1 1 1 1 1 1 1 0 0 0 1 1 1 1 1 1 1 1 1 1 1 1
3 4 4 4 4 5 5 5 5 4 3 3 3 2 2 1 1 0 1 1 1 1 1 1 1 1 1 0 0 0 1 1 1 1 1 1 1 1 0 1 1 1 1
3 4 4 4 4 4 5 5 5 5 4 4 3 2 2 1 1 0 0 1 1 1 1 1 1 1 1 0 0 0 1 1 1 1 0 0 0 0 1 1 1 1 1
4 3 3 3 3 4 4 5 6 5 5 4 3 2 2 1 1 0 0 1 1 1 1 0 1 1 0 0 0 0 1 1 1 0 0 0 1 1 1 2 2 2 1
4 4 3 3 3 3 4 5 6 6 5 4 3 2 2 2 1 1 0 0 0 1 1 1 1 0 0 0 0 0 0 0 0 0 0 1 1 2 2 2 2 2 2
4 4 4 4 4 4 4 4 5 5 5 4 3 3 3 2 2 1 1 0 0 0 0 0 0 0 0 0 0 0 0 1 1 1 1 1 1 2 2 2 1 1 1
3 3 3 4 4 4 3 3 4 5 5 4 4 3 3 3 3 2 1 1 1 0 0 0 0 0 0 0 0 1 1 1 1 1 1 1 1 2 1 1 1 1 1
2 2 2 2 3 3 2 2 3 3 4 3 3 3 3 3 3 2 2 2 1 1 1 1 1 1 1 1 1 1 1 1 1 1 1 1 1 1 1 0 0 0 0
1 1 1 2 2 2 2 2 2 2 2 2 2 2 2 2 2 1 1 1 1 1 1 1 1 1 1 1 1 1 1 1 1 1 1 1 1 1 0 0 0 0 0
1 1 1 1 1 1 1 1 1 1 1 1 1 1 1 1 1 1 0 0 1 1 1 1 1 1 2 2 2 2 1 1 1 1 1 1 0 0 0 0 0 0 0
0 1 1 1 1 1 1 1 1 1 1 1 1 1 0 0 0 0 0 0 1 1 1 1 1 1 2 2 2 2 1 1 1 1 0 0 0 0 0 0 0 0 0
0 0 0 1 1 1 1 1 1 1 1 2 2 1 1 0 0 0 0 1 1 1 1 1 1 2 2 2 2 1 1 1 0 0 0 0 0 0 0 0 0 0 0
0 0 0 0 1 1 1 1 1 1 1 2 2 2 1 1 0 0 0 1 1 2 2 2 2 2 2 1 1 1 0 0 0 0 0 0 0 0 0 0 0 0 0
0 0 0 0 0 0 0 0 0 1 1 1 1 1 1 1 1 1 1 1 1 1 2 2 2 1 1 1 0 0 0 0 0 0 0 0 0 0 0 0 0 0 0
0 0 0 0 0 0 0 0 0 0 1 1 1 1 0 0 1 1 1 1 0 1 1 1 1 1 0 0 0 0 0 0 0 0 0 0 0 0 0 0 0 0 0
0 0 0 0 0 0 0 0 0 0 0 1 1 0 0 0 0 0 0 0 0 0 0 0 0 0 0 0 0 0 0 0 0 0 0 0 0 0 0 0 0 0 0
0 0 0 0 0 0 0 0 0 0 0 0 1 0 0 0 0 0 0 0 0 0 0 0 0 0 0 0 0 0 0 0 0 0 0 0 0 0 0 0 0 0 0
0 0 0 0 0 0 0 0 0 0 0 0 0 0 0 0 0 0 0 0 0 0 0 0 0 0 0 0 0 0 0 0 0 0 0 0 0 0 0 0 0 0 0
0 0 0 0 0 0 0 0 0 0 0 0 0 0 0 0 0 0 0 0 0 0 0 0 0 0 0 0 0 0 0 0 0 0 0 0 0 0 0 0 0 0 0
Wind_Speed
7 7 6 6 5 5 4 5 4 3 3 4 3 3 2 2 2 2 2 2 2 2 2 2 2 2 1 1 1 1 2 2 3 3 2 2 2 2 3 2 2 1 1
6 6 6 5 5 5 5 4 4 4 3 3 3 2 2 2 2 2 2 2 2 2 2 2 2 1 1 1 1 1 1 2 2 3 2 2 2 2 2 2 2 1 1
5 6 5 5 5 5 5 4 4 4 3 3 3 3 2 2 2 2 2 1 1 1 1 1 1 0 1 1 0 0 1 0 1 2 2 1 1 2 2 2 2 2 2
5 6 5 5 5 5 4 4 4 4 4 3 3 2 2 2 2 2 2 1 1 1 1 1 1 0 1 1 0 1 0 0 0 1 1 1 1 2 1 2 2 2 2
5 5 5 5 5 4 4 4 4 4 4 3 3 2 2 2 2 3 2 2 1 1 2 1 1 2 1 0 1 1 1 0 0 0 1 1 2 2 2 2 2 2 2
4 4 4 4 4 4 4 4 4 3 3 3 3 3 3 1 2 4 3 2 2 2 2 2 2 3 3 3 3 2 1 1 1 0 1 1 2 2 2 2 2 2 2
3 3 3 4 4 4 4 4 4 3 3 3 3 3 3 2 3 4 4 3 3 2 2 2 2 3 3 3 4 5 4 3 1 1 1 2 2 2 1 2 1 2 2
3 2 2 3 3 3 4 3 3 3 4 3 3 3 2 2 4 4 4 3 3 3 3 3 3 3 3 2 3 3 3 4 3 1 1 2 2 2 1 2 2 1 1
3 3 2 3 4 4 4 3 3 4 4 4 3 3 3 3 4 5 5 3 3 4 4 4 3 3 5 4 4 4 4 4 5 5 5 4 5 5 3 1 1 1 1
2 2 3 3 4 4 4 4 4 4 4 4 4 4 4 3 4 6 5 3 3 3 3 4 6 5 5 5 4 4 4 3 3 4 5 6 5 6 6 3 1 1 1
2 3 3 4 5 5 5 4 5 5 5 5 5 4 3 4 5 5 5 4 3 3 3 3 4 6 6 6 5 4 3 2 3 4 4 4 4 4 4 4 2 1 1
3 4 4 4 4 5 6 5 5 5 5 5 4 3 3 4 4 5 6 5 4 4 3 3 3 6 8 8 6 6 6 5 4 4 4 4 4 4 4 4 3 3 2
4 5 5 6 5 5 6 6 5 4 4 3 3 3 3 3 4 6 7 7 7 5 4 6 6 7 7 7 9 9 6 4 4 4 4 3 3 4 4 3 4 3 3
6 6 5 7 7 6 5 5 4 3 3 4 3 3 3 3 2 3 3 4 6 6 5 6 8 9 7 7 7 6 5 4 4 3 3 3 3 4 4 4 3 4 3
6 6 6 6 6 6 6 5 4 3 3 3 3 3 3 2 1 3 4 4 4 4 5 5 5 5 5 5 5 5 4 4 4 3 3 3 4 4 4 4 3 3 3
5 5 4 4 5 5 6 7 11 9 11 10 7 6 5 5 6 8 9 9 8 8 7 6 5 4 4 4 4 4 4 4 3 3 3 3 3 3 4 4 4 4 4
5 4 4 4 4 5 5 5 5 8 12 11 10 9 8 8 9 9 10 10 9 8 7 5 4 4 3 3 3 3 3 3 3 3 3 3 3 3 3 4 4 4 4
6 6 5 4 4 4 5 5 5 5 5 5 7 9 9 9 9 9 9 9 7 6 5 4 3 3 3 2 2 2 3 3 3 3 3 3 3 3 3 3 4 4 4
5 4 4 4 4 4 5 5 5 6 5 5 4 5 7 8 9 9 8 6 5 4 3 3 3 2 2 2 2 2 2 2 3 3 3 3 3 3 3 3 3 4 4
5 7 6 5 5 4 5 5 5 5 5 5 4 4 4 5 5 5 5 4 4 3 3 2 2 2 2 2 2 2 2 2 3 2 2 3 3 2 3 3 3 3 4
4 5 8 5 4 4 4 5 5 5 5 4 3 3 4 4 4 4 4 3 3 2 2 2 2 2 2 2 2 2 2 2 2 2 3 3 3 3 3 3 3 3 3
4 4 4 4 4 4 4 4 4 4 5 5 4 4 5 4 4 3 3 2 2 2 2 2 2 2 1 1 1 1 2 2 2 3 3 3 2 3 3 3 3 3 3
4 5 5 4 4 5 4 4 4 4 4 4 4 4 4 4 3 3 3 3 3 3 2 2 2 2 2 2 1 1 1 2 2 2 2 2 2 3 3 3 4 4 4
5 5 5 4 4 4 4 4 4 4 4 4 4 3 3 3 4 3 3 3 3 3 3 2 2 3 4 3 2 2 2 2 2 2 2 2 2 2 3 3 3 4 3
4 4 4 4 4 4 4 4 4 4 4 3 3 4 4 4 4 3 3 3 3 3 3 3 2 3 3 4 4 4 4 4 3 2 1 1 2 3 3 3 3 4 4
4 4 4 3 3 3 3 3 3 4 3 3 3 4 4 4 3 3 3 3 3 3 3 2 3 3 4 3 5 5 4 4 4 4 2 2 2 3 3 3 4 4 4
Wind_Direction
191 191 192 192 191 191 197 204 206 208 202 206 206 207 214 219 209 200 220 228 225 248 248 227 242 230 231 241 237 232 230 214 239 281 288 309 315 316 322 313 299 285 300
190 187 191 184 179 190 201 200 191 191 191 193 182 186 201 200 185 187 215 223 218 238 254 244 258 232 213 245 235 235 226 214 220 266 301 311 300 314 322 329 334 333 325
177 185 189 184 185 193 194 185 175 173 176 176 169 177 190 177 162 171 179 200 205 237 261 241 257 207 237 243 206 220 242 218 215 237 289 313 308 337 338 342 343 337 342
170 177 186 193 191 188 177 172 170 168 169 170 174 179 176 156 149 144 140 142 122 72 25 357 298 230 239 237 217 230 197 123 188 224 285 315 316 328 352 345 346 340 333
155 171 187 189 177 165 164 166 161 161 170 168 159 150 138 141 154 148 144 135 120 89 57 29 26 56 63 159 200 206 174 160 155 163 292 331 343 350 340 324 321 320 325
152 174 172 166 158 158 160 156 151 150 149 142 143 138 130 138 127 137 141 133 121 104 75 41 43 42 48 58 67 73 103 137 168 216 278 297 305 312 321 322 318 319 317
142 158 154 147 156 165 153 144 146 145 135 123 120 126 129 120 120 118 117 116 107 96 82 59 49 38 40 60 61 59 49 46 80 198 249 280 288 297 300 304 295 285 286
121 118 120 137 150 139 129 142 142 133 130 123 119 117 111 97 103 102 100 96 87 77 69 67 63 37 34 62 74 57 42 31 28 31 357 323 329 319 280 260 259 275 300
106 109 126 138 138 133 138 143 134 124 119 116 114 113 106 85 90 99 99 92 84 69 58 55 55 50 35 60 82 71 50 37 44 49 45 37 29 22 18 35 20 1 338
95 107 110 118 123 122 130 123 113 113 112 108 98 93 100 97 95 102 106 106 94 77 61 51 46 46 44 59 79 76 58 24 23 31 31 26 28 32 38 43 20 37 4
86 95 96 106 115 119 117 112 111 110 106 100 96 89 90 92 91 92 100 108 115 102 79 55 41 50 59 62 66 65 54 43 47 44 36 28 26 27 26 26 22 25 24
90 89 89 97 111 114 111 106 105 110 108 106 101 84 62 62 67 79 88 103 116 107 93 74 62 63 64 60 59 51 54 58 55 49 40 26 17 12 8 12 22 28 21
85 89 92 89 84 94 105 108 109 113 114 109 100 92 73 59 60 70 82 89 96 97 89 83 73 69 65 60 51 50 54 55 53 48 34 15 2 357 358 5 19 26 29
88 84 88 90 85 78 78 83 94 100 111 116 108 103 83 59 53 75 82 84 86 90 87 76 68 63 61 54 47 46 46 47 50 45 27 10 7 14 15 9 8 6 15
90 90 87 87 91 80 70 61 70 61 82 111 111 117 116 100 51 81 94 88 95 101 96 74 61 55 52 48 45 41 39 40 41 34 33 26 21 22 14 6 8 11 13
97 94 92 91 93 96 97 79 57 62 66 70 79 94 84 95 96 85 83 83 86 96 90 79 70 65 61 53 47 38 33 31 26 27 31 29 26 22 16 11 11 13 11
101 100 99 100 104 107 105 105 91 64 62 63 69 79 89 92 89 89 92 89 80 83 82 81 75 69 63 54 46 39 26 16 17 30 33 28 25 22 19 14 10 8 6
95 99 104 105 105 109 110 107 105 102 88 66 58 71 82 85 84 85 91 89 72 64 73 77 73 65 58 51 43 36 27 26 29 28 25 21 20 20 18 13 9 5 359
93 97 100 101 101 105 106 104 102 101 101 96 86 71 73 82 78 76 84 84 90 82 75 72 70 66 57 50 43 37 33 28 21 18 16 10 8 11 11 5 360 358 355
90 104 105 105 101 102 104 105 105 105 104 102 99 99 97 89 84 77 73 79 86 85 84 79 65 58 56 48 40 37 34 27 18 15 7 2 360 2 1 357 354 351 350
93 101 103 101 104 108 109 112 112 112 111 106 100 94 107 103 99 93 88 86 91 92 89 81 67 52 44 37 32 30 30 17 6 2 1 357 356 358 355 354 352 355 356
99 101 102 101 102 104 106 109 109 110 113 112 103 92 94 95 93 88 84 82 80 82 89 92 77 55 39 30 20 17 10 1 355 352 352 352 355 357 358 359 359 1 2
107 105 100 97 99 103 103 106 110 111 110 110 113 108 104 102 98 90 84 79 75 71 71 75 71 51 33 26 19 11 351 331 318 314 325 339 354 359 359 359 1 0 358
102 106 106 104 102 103 106 105 106 110 112 113 114 112 108 105 100 91 82 79 75 67 60 60 59 48 35 25 17 12 3 343 326 310 319 332 349 355 359 2 359 355 351
97 100 103 106 109 109 109 108 108 111 110 111 114 113 109 105 100 93 85 80 77 68 59 55 49 41 32 25 20 13 1 356 353 352 348 356 3 360 358 0 358 354 356
96 97 98 103 109 115 118 117 115 115 114 115 115 116 115 112 108 102 94 84 77 66 55 48 42 39 29 23 18 14 8 2 358 353 353 11 16 7 0 358 360 359 360